This is the latest recevied weather packets stored in our database for station/object K3JSE-4. If no packets are shown the sender has not sent any weather packets the latest 10 day(s).
| Time | Temp. | Humidity | Pressure | Rain* | Wind** | Luminosity | Snow |
|---|---|---|---|---|---|---|---|
| 1777731643 | 10° C | 62% | 1013.8 hPa | 0 mm | - | - | - |
| 1777731343 | 10° C | 61% | 1013.9 hPa | 0 mm | - | - | - |
| 1777731043 | 10° C | 68% | 1014.1 hPa | 0 mm | - | - | - |
| 1777730743 | 10° C | 64% | 1014 hPa | 0 mm | - | - | - |
| 1777730443 | 10° C | 63% | 1014.1 hPa | 0 mm | - | - | - |
| 1777730143 | 9.44° C | 66% | 1014.2 hPa | 0 mm | - | - | - |
| 1777729843 | 9.44° C | 67% | 1014.1 hPa | 0 mm | - | - | - |
| 1777729543 | 8.89° C | 65% | 1014.2 hPa | 0 mm | - | - | - |
| 1777729243 | 9.44° C | 67% | 1014.1 hPa | 0 mm | - | - | - |
| 1777728943 | 9.44° C | 68% | 1014.2 hPa | 0 mm | - | - | - |
| 1777728643 | 8.89° C | 68% | 1014.1 hPa | 0 mm | - | - | - |
| 1777728343 | 8.89° C | 72% | 1014.1 hPa | 0 mm | - | - | - |
| 1777728043 | 8.89° C | 73% | 1014.1 hPa | 0 mm | - | - | - |
| 1777727743 | 8.33° C | 73% | 1014.3 hPa | 0 mm | - | - | - |
| 1777727443 | 7.78° C | 74% | 1014.2 hPa | 0 mm | - | - | - |
| 1777727143 | 7.78° C | 74% | 1014.2 hPa | 0 mm | - | - | - |
| 1777726843 | 7.78° C | 75% | 1014.4 hPa | 0 mm | - | - | - |
| 1777726543 | 7.78° C | 76% | 1014.4 hPa | 0 mm | - | - | - |
| 1777726244 | 7.78° C | 76% | 1014.3 hPa | 0 mm | - | - | - |
| 1777725944 | 7.78° C | 76% | 1014.2 hPa | 0 mm | - | - | - |
| 1777725644 | 7.78° C | 76% | 1014.2 hPa | 0 mm | - | - | - |
| 1777725344 | 7.78° C | 76% | 1014.1 hPa | 0 mm | - | - | - |
| 1777725044 | 7.78° C | 77% | 1014.1 hPa | 0 mm | - | - | - |
| 1777724744 | 7.78° C | 77% | 1014 hPa | 0 mm | - | - | - |
| 1777724444 | 7.78° C | 76% | 1014.1 hPa | 0 mm | - | - | - |
* Rain latest hour (hover to see other rain measurements)
** Current wind speed in m/s (hover to see current wind gust speed)